This is the latest recevied weather packets stored in our database for station/object N7CW. If no packets are shown the sender has not sent any weather packets the latest 10 day(s).
| Time | Temp. | Humidity | Pressure | Rain* | Wind** | Luminosity | Snow |
|---|---|---|---|---|---|---|---|
| 1777438472 | 10.56° C | 29% | 1019.9 hPa | 0 mm | - | 0 W/m² | - |
| 1777438167 | 10° C | 31% | 1019.8 hPa | 0 mm | - | 0 W/m² | - |
| 1777437863 | 9.44° C | 32% | 1019.8 hPa | 0 mm | - | 0 W/m² | - |
| 1777437560 | 10° C | 31% | 1019.7 hPa | 0 mm | - | 0 W/m² | - |
| 1777437257 | 10.56° C | 30% | 1019.9 hPa | 0 mm | - | 0 W/m² | - |
| 1777436953 | 10.56° C | 29% | 1019.8 hPa | 0 mm | - | 0 W/m² | - |
| 1777436650 | 11.11° C | 29% | 1019.5 hPa | 0 mm | - | 0 W/m² | - |
| 1777436346 | 11.67° C | 29% | 1019.5 hPa | 0 mm | - | 0 W/m² | - |
| 1777436042 | 11.67° C | 29% | 1019.7 hPa | 0 mm | - | 0 W/m² | - |
| 1777435739 | 11.67° C | 28% | 1019.5 hPa | 0 mm | - | 0 W/m² | - |
| 1777435435 | 11.67° C | 28% | 1019.4 hPa | 0 mm | - | 0 W/m² | - |
| 1777435130 | 11.67° C | 28% | 1019.3 hPa | 0 mm | - | 0 W/m² | - |
| 1777434825 | 11.67° C | 28% | 1019.3 hPa | 0 mm | - | 0 W/m² | - |
| 1777434525 | 11.67° C | 28% | 1019.3 hPa | 0 mm | - | 0 W/m² | - |
| 1777433919 | 11.67° C | 28% | 1019.1 hPa | 0 mm | - | 0 W/m² | - |
| 1777433617 | 11.67° C | 27% | 1019.1 hPa | 0 mm | - | 0 W/m² | - |
| 1777433317 | 11.11° C | 28% | 1019.2 hPa | 0 mm | - | 0 W/m² | - |
| 1777432708 | 11.67° C | 28% | 1019.2 hPa | 0 mm | - | 0 W/m² | - |
| 1777432405 | 11.11° C | 28% | 1019.3 hPa | 0 mm | - | 0 W/m² | - |
| 1777432100 | 11.67° C | 28% | 1019.3 hPa | 0 mm | - | 0 W/m² | - |
| 1777431795 | 11.11° C | 29% | 1019.1 hPa | 0 mm | - | 0 W/m² | - |
| 1777431491 | 12.22° C | 27% | 1019.1 hPa | 0 mm | - | 0 W/m² | - |
| 1777429369 | 13.89° C | 25% | 1018.7 hPa | 0 mm | - | 1 W/m² | - |
| 1777428457 | 14.44° C | 24% | 1018.6 hPa | 0 mm | - | 6 W/m² | - |
| 1777428153 | 15° C | 23% | 1018.5 hPa | 0 mm | - | 9 W/m² | - |
* Rain latest hour (hover to see other rain measurements)
** Current wind speed in m/s (hover to see current wind gust speed)